Theta_e
323 324 325 325 325 326 326 326 326 326 326 326 326 326 326 326 325 326 326 326 325 325 325 325 325 325 325 325 326 326 326 327 327 327 327 326 326 325 325 324 324 324 323 323 323 324 324 324 325 325 325 325 324 324 324 324 323 322 321 321 321 321 320 318 317 317 317 316 316 316 316 316 315 315 314 313 313 313 312 312 312 311 310 310 309
321 322 324 324 325 326 326 326 326 326 326 326 326 326 326 326 326 326 326 326 325 325 325 325 325 325 325 326 326 326 327 327 327 327 327 326 326 325 324 324 324 323 323 323 323 324 324 323 323 324 324 324 324 323 323 323 322 322 321 320 320 320 320 318 315 314 314 315 315 315 314 314 313 313 312 311 310 310 310 310 309 308 308 307 306
319 321 322 323 324 324 325 325 326 325 325 326 326 326 326 326 326 326 326 326 325 325 326 325 325 325 326 326 326 326 326 327 327 326 326 326 325 325 325 324 324 323 323 323 323 323 323 323 322 322 323 322 322 322 322 322 321 321 320 319 319 318 319 318 315 312 312 312 313 313 313 313 312 310 310 309 308 307 307 306 306 306 306 305 303
318 319 321 322 322 323 324 324 324 324 325 325 325 325 325 326 326 325 325 325 325 325 325 324 325 326 326 326 326 326 326 326 326 326 326 326 325 325 324 324 323 323 323 322 322 322 322 321 321 321 321 321 322 321 321 321 320 319 318 318 317 317 317 317 314 312 311 310 311 312 312 311 310 309 308 307 306 305 305 304 304 304 304 303 302
316 317 319 320 320 321 322 322 323 323 323 324 324 324 324 325 325 325 325 325 324 324 324 323 324 325 325 325 325 325 326 325 325 326 325 325 325 324 323 322 321 322 322 321 320 320 320 320 320 320 320 321 321 321 320 319 319 318 317 316 315 315 316 316 314 311 309 308 308 310 311 310 308 307 306 305 304 303 303 303 303 302 302 302 301
312 314 316 317 318 319 320 321 321 322 322 322 323 323 323 323 323 324 324 323 323 323 322 323 323 324 324 325 325 325 325 325 324 325 324 325 324 322 321 321 322 321 320 320 319 319 319 319 319 319 320 320 320 320 319 318 318 317 316 316 316 315 315 315 313 310 308 307 307 307 307 307 306 304 304 303 302 300 299 299 299 299 299 299 299
309 311 312 314 315 316 317 318 319 320 320 321 322 322 322 322 322 322 322 322 322 321 321 322 322 323 323 323 324 324 325 324 323 323 324 324 323 321 320 321 322 319 317 318 320 320 320 319 318 319 320 319 319 319 318 318 317 316 316 316 315 315 315 314 312 308 306 305 304 304 304 304 304 302 302 302 300 299 297 296 297 297 296 296 295
309 309 310 311 312 312 313 314 315 317 318 319 320 320 320 320 320 320 320 320 320 320 320 321 321 321 322 322 323 323 324 323 323 323 324 322 321 321 321 321 321 319 318 318 318 319 319 319 319 319 319 318 317 317 317 316 316 315 315 315 314 312 312 312 310 307 305 303 302 302 301 301 302 301 300 299 298 297 296 295 295 295 294 294 293
309 309 309 310 310 310 310 311 312 314 315 317 318 318 318 318 318 318 318 318 318 318 318 319 320 320 321 321 321 322 323 323 322 323 322 320 320 321 320 319 319 318 318 318 317 317 317 318 318 317 316 315 314 314 314 314 314 314 314 314 312 310 309 308 307 305 303 301 301 301 300 300 300 299 298 297 297 297 296 293 293 293 293 292 291
309 309 309 309 309 309 309 309 310 311 312 314 316 316 316 315 315 315 316 316 317 317 317 318 319 319 320 320 321 321 321 321 321 322 321 321 321 321 319 318 317 316 317 317 317 317 316 316 316 315 314 313 312 312 312 312 312 312 313 312 311 309 308 307 305 303 301 300 301 301 300 301 301 300 299 298 296 295 294 293 292 292 291 291 291
309 309 309 308 308 308 308 308 308 309 310 311 313 314 314 314 314 314 314 314 315 316 316 317 318 318 318 319 319 319 319 320 320 320 319 320 319 318 317 316 315 315 317 317 316 315 315 314 314 313 312 312 312 312 312 311 311 311 310 310 309 308 308 306 305 303 301 301 301 301 301 301 301 299 298 296 295 293 292 292 291 291 290 290 290
310 310 309 308 308 307 306 307 307 307 307 308 309 311 312 312 313 313 313 313 313 314 315 316 316 317 316 316 317 317 318 319 318 317 318 319 317 316 316 316 316 316 315 315 314 313 312 311 311 311 312 312 311 311 311 310 310 309 309 309 308 308 307 306 305 303 302 301 300 300 299 299 299 297 296 294 292 291 290 289 289 288 288 289 289
309 309 309 308 308 307 306 306 306 307 307 307 308 308 310 311 311 311 312 312 311 312 313 314 314 314 314 315 316 316 317 317 317 316 317 317 316 316 315 315 315 314 314 313 312 311 310 310 310 310 310 310 309 310 310 309 308 308 307 307 307 307 306 305 304 303 301 300 299 298 297 297 296 295 293 291 289 288 288 288 287 287 287 287 287
309 309 309 308 307 307 306 305 305 306 306 306 307 307 308 308 308 308 309 309 309 310 311 312 312 313 314 315 316 316 316 316 316 316 316 315 315 314 314 313 312 312 312 311 310 310 310 310 310 309 309 308 308 308 308 307 307 306 306 306 306 305 304 303 301 301 300 298 297 296 295 294 293 291 290 289 287 286 286 287 286 286 286 286 286
308 309 308 308 307 306 306 305 304 305 305 305 305 306 306 306 305 305 305 306 308 309 310 311 312 313 314 315 315 315 314 314 314 313 313 312 312 311 310 310 309 309 308 308 308 310 310 309 309 308 308 308 308 307 307 307 306 305 304 304 303 302 302 301 299 298 297 296 295 294 292 291 290 289 288 288 287 286 286 286 286 285 285 286 286
308 308 308 308 307 306 305 304 303 303 302 302 303 303 303 303 303 304 304 306 307 309 310 311 312 312 313 313 313 313 312 312 311 310 310 309 309 309 308 307 307 307 307 307 308 309 309 308 308 307 308 308 308 307 306 306 305 303 303 301 300 299 298 297 296 294 293 292 292 291 290 289 288 288 287 287 287 286 286 286 286 285 286 286 287
308 308 308 309 307 305 305 304 303 302 301 301 302 302 301 301 302 303 305 306 307 308 309 310 311 311 311 311 311 310 309 309 308 307 307 307 307 307 306 306 306 306 306 307 307 307 307 307 307 307 307 307 306 306 305 304 303 302 300 299 297 296 294 293 292 292 291 291 290 290 289 288 287 287 286 286 286 285 285 286 286 285 286 287 287
308 309 309 309 307 305 304 304 303 302 300 301 302 301 300 301 302 303 304 306 306 307 308 308 308 309 308 308 308 307 306 306 306 306 305 305 304 304 305 304 304 304 305 305 305 305 305 305 305 306 306 306 305 304 304 303 302 300 299 298 295 293 292 291 291 290 290 289 289 288 287 286 286 285 285 285 285 284 285 286 286 285 286 287 287
310 311 310 309 307 305 304 304 303 303 302 302 302 301 300 301 301 302 304 305 305 306 306 306 305 305 305 304 303 303 303 303 304 304 303 303 303 303 303 303 303 303 303 302 303 304 304 304 304 304 305 305 304 303 302 301 300 299 298 297 294 292 291 291 291 290 289 288 287 286 286 285 285 284 284 284 284 284 284 284 284 284 285 286 285
311 311 309 307 306 305 305 304 304 304 304 303 302 302 301 301 301 301 302 303 303 303 303 303 302 302 301 301 301 300 300 301 301 302 303 303 303 303 304 304 303 302 301 300 301 303 304 303 303 303 303 302 302 302 302 300 299 298 297 296 295 293 292 291 290 289 288 287 286 285 285 285 284 284 284 284 284 284 283 283 283 283 284 284 284
309 308 307 305 305 305 304 304 304 304 304 303 302 301 301 300 300 301 301 301 301 301 301 300 300 300 299 299 299 300 300 300 301 302 303 304 304 304 304 304 302 301 300 299 299 301 302 302 302 301 301 300 300 300 300 299 297 296 295 296 296 295 293 291 288 287 286 286 285 285 285 284 284 284 284 284 283 283 283 283 283 282 282 282 283
305 305 304 304 304 303 303 303 303 303 303 302 301 300 300 299 299 299 299 299 299 299 299 299 298 298 298 298 299 300 300 301 301 302 303 304 304 304 305 304 303 301 300 299 298 298 299 301 302 301 300 300 298 298 298 297 296 294 293 293 293 292 291 289 287 286 285 285 285 284 284 284 284 283 283 283 283 283 282 282 282 282 281 281 281
303 302 302 302 302 302 302 302 301 301 301 301 300 300 299 298 298 297 297 298 297 297 297 297 297 297 297 298 298 299 300 301 301 302 303 304 304 305 305 304 304 303 302 301 300 297 297 300 301 300 299 298 297 296 296 295 294 292 291 291 290 289 288 287 286 285 285 285 284 284 284 283 283 282 282 282 281 281 281 281 281 281 281 280 280
301 301 301 301 301 301 301 301 301 301 301 300 300 298 298 297 296 296 296 296 296 296 296 296 296 296 297 297 297 298 300 301 301 303 303 304 304 304 304 304 303 302 302 302 301 300 300 301 300 298 297 297 297 296 295 293 292 290 289 289 288 287 286 286 285 285 284 284 283 283 283 282 282 282 281 281 280 280 280 280 281 280 280 280 279
299 300 300 300 300 300 299 299 300 300 300 300 299 298 297 296 296 296 295 295 296 296 296 296 296 296 296 297 297 297 298 299 300 302 303 303 303 304 304 302 301 301 301 301 301 302 302 302 300 298 297 297 296 294 291 290 289 288 288 287 286 286 286 285 285 284 283 283 283 283 282 282 281 281 280 280 280 280 279 279 279 279 279 279 278
299 299 299 299 299 299 298 298 298 298 298 298 298 298 297 296 296 295 295 295 295 295 296 296 296 296 296 297 297 297 297 297 298 300 301 302 302 302 302 302 301 301 300 300 300 301 301 300 298 297 296 294 292 290 288 288 287 287 286 286 285 285 285 285 284 283 283 283 282 282 282 281 281 280 280 280 279 279 279 279 278 278 278 278 278
298 298 298 298 298 298 298 297 297 297 297 297 296 296 296 295 295 295 295 295 295 295 296 296 296 296 296 296 297 297 297 296 296 297 298 299 299 299 299 299 298 298 296 296 297 299 298 296 295 294 293 291 289 287 287 287 286 286 286 286 286 285 285 284 283 283 283 283 282 282 281 280 280 280 279 279 279 279 279 278 278 278 278 277 277
298 298 297 297 297 297 297 297 297 296 296 296 295 295 295 295 295 295 295 295 295 295 296 296 296 296 296 296 297 297 297 296 295 296 296 296 296 296 295 295 294 293 293 294 296 296 294 293 291 290 289 288 286 286 286 286 286 286 286 286 285 285 284 283 283 283 283 282 282 281 280 280 279 279 279 279 279 279 278 278 278 278 278 277 277
297 297 297 296 296 296 296 296 296 296 295 295 295 294 295 295 295 295 295 295 295 295 296 296 296 296 296 296 296 297 297 296 295 296 295 295 296 295 294 294 293 292 293 294 294 292 291 289 288 287 286 285 285 284 284 284 284 284 284 284 284 283 283 282 282 282 282 282 281 280 280 279 279 279 279 279 279 278 278 278 277 277 277 277 277
296 296 296 296 296 296 295 295 295 295 295 294 294 294 294 294 294 294 295 295 295 295 295 296 296 296 296 296 296 297 297 296 296 296 295 295 296 295 295 294 294 294 293 293 293 291 289 287 286 285 284 284 283 283 283 283 283 283 283 283 283 282 282 282 282 282 281 281 281 280 280 279 279 279 279 279 279 278 278 277 277 277 277 277 277
295 295 295 295 295 295 295 295 295 294 294 294 293 293 294 294 293 294 294 294 294 294 295 295 295 296 296 296 296 296 296 296 296 296 295 295 295 294 294 294 294 295 294 293 291 290 288 286 285 284 283 283 283 283 282 282 282 282 282 282 282 282 282 282 281 281 281 280 280 280 279 279 279 279 278 278 278 278 278 277 277 277 277 277 277
293 293 293 293 294 294 294 294 294 294 293 293 293 293 293 293 293 293 293 293 294 294 294 294 295 295 295 295 296 296 296 296 296 296 295 295 295 294 293 293 293 293 293 292 291 289 287 286 285 284 283 284 283 283 282 282 282 282 281 281 281 281 281 281 281 281 281 280 279 279 279 279 279 279 278 278 278 278 278 277 277 277 277 276 276
292 292 292 291 291 292 293 293 293 293 293 293 293 293 293 294 294 294 293 293 293 293 294 294 294 295 295 295 295 295 296 296 296 295 295 295 295 294 293 291 291 292 292 291 289 287 286 285 285 284 283 283 283 282 282 282 282 281 281 281 281 280 281 281 280 280 279 279 279 279 279 278 278 278 278 278 277 277 277 277 277 276 276 276 276
289 290 290 290 289 290 292 293 293 293 293 293 293 293 293 293 294 294 294 293 292 292 293 293 293 294 294 295 295 295 296 296 296 296 295 295 295 294 292 290 290 291 290 289 288 287 285 285 284 283 283 283 282 282 282 281 281 281 281 281 280 280 280 280 279 279 278 278 278 278 278 278 278 278 277 277 277 276 276 276 276 276 276 275 275
285 286 287 287 287 289 290 291 292 292 292 292 292 293 293 293 293 293 293 293 293 292 292 292 293 293 294 294 294 294 295 295 295 295 295 294 293 292 290 288 288 288 288 288 287 286 285 284 283 283 282 282 281 281 281 281 281 280 280 280 280 279 279 279 278 278 278 278 278 278 277 277 277 277 276 276 276 275 275 275 275 275 275 275 275
283 285 286 286 287 288 289 290 291 291 292 292 292 292 292 292 292 293 293 293 293 293 292 291 291 292 293 293 294 294 294 294 295 294 294 293 292 290 288 288 287 287 286 286 286 285 284 284 283 282 282 281 280 280 280 280 280 280 280 279 279 279 278 278 278 278 278 278 277 277 277 276 276 276 275 275 275 275 275 275 275 275 275 274 274
282 283 285 286 287 287 288 289 290 290 291 291 291 292 292 292 292 292 292 292 292 292 291 290 290 290 290 291 292 293 293 293 293 293 293 292 291 290 289 288 287 286 285 284 284 284 283 283 282 281 281 280 280 280 279 279 279 279 279 278 278 278 278 278 278 277 277 277 276 276 275 275 275 275 275 275 275 275 275 274 274 274 274 273 273
283 283 284 285 285 286 287 288 289 289 290 290 291 291 291 292 292 292 292 291 291 290 289 288 288 288 289 290 291 291 291 291 291 290 290 290 289 289 289 288 287 286 284 283 283 283 282 281 281 280 280 280 279 279 279 279 279 278 278 278 278 278 277 277 277 276 276 275 275 275 274 274 274 274 274 274 274 274 274 273 273 273 272 272 272
284 283 284 284 284 285 286 287 288 289 289 289 290 291 291 291 291 291 291 290 289 288 288 288 287 288 288 289 289 289 289 288 288 288 288 288 288 288 287 286 285 283 283 282 281 281 281 280 280 280 280 280 280 280 280 279 279 278 278 278 277 276 276 276 275 275 275 274 274 274 274 273 273 273 272 272 272 272 272 272 272 272 272 272 272
282 282 283 284 284 284 285 286 287 288 288 289 289 290 290 290 290 290 290 289 288 287 287 287 287 287 287 288 288 288 288 287 287 287 287 286 286 284 284 283 282 281 281 281 281 280 280 280 280 280 280 280 280 280 279 279 278 277 277 276 276 275 275 274 274 274 274 274 273 273 273 272 272 271 271 271 270 271 271 271 271 271 271 271 271
281 281 281 282 283 284 284 284 285 286 287 287 288 288 289 289 289 289 288 288 287 287 286 286 286 286 286 287 288 288 288 287 286 285 284 283 282 281 281 282 282 281 281 281 281 280 280 280 280 279 280 279 279 279 278 277 277 276 276 275 275 274 274 273 273 273 273 273 272 272 272 271 271 270 270 269 269 269 269 269 269 269 270 270 270
279 279 280 281 282 282 283 283 284 285 285 286 286 287 287 288 288 288 287 287 286 286 285 284 284 284 284 285 286 286 286 284 283 282 281 280 279 279 280 281 281 281 281 281 281 280 280 280 280 279 279 278 278 277 276 276 276 276 275 274 274 274 273 273 273 273 272 272 271 271 271 270 270 269 269 269 268 268 268 268 268 269 269 269 269
277 278 279 280 280 281 281 282 283 283 284 285 285 285 286 286 286 286 286 285 285 284 283 282 281 281 282 282 283 283 283 281 280 279 278 277 278 279 280 280 281 281 281 281 281 281 281 280 279 279 278 277 277 276 276 276 276 275 274 274 273 273 273 273 272 272 271 271 271 271 270 270 270 269 269 268 267 267 267 267 267 268 268 268 268
277 277 278 279 279 280 280 281 281 282 283 283 283 284 284 284 284 284 284 283 283 282 282 281 279 279 279 279 279 279 279 278 277 277 277 277 279 279 279 279 280 280 280 280 280 280 280 279 278 277 276 275 275 275 275 275 275 274 274 273 273 273 273 273 272 272 271 271 271 270 270 270 269 269 268 267 267 266 266 266 266 267 267 267 267
277 277 277 278 279 279 279 280 280 281 281 281 282 282 282 282 283 283 282 282 281 280 280 279 278 277 277 277 277 277 277 277 276 276 277 278 279 279 279 279 279 279 279 279 279 278 278 277 276 275 274 274 274 274 274 273 273 272 272 273 273 273 272 272 272 272 271 271 271 270 270 269 269 268 268 267 266 265 265 265 265 265 265 265 266
276 276 277 277 278 278 279 279 279 279 280 280 280 280 281 281 281 281 281 280 279 279 278 277 277 276 276 275 276 277 277 277 277 277 277 277 278 277 277 277 277 277 277 276 276 275 275 275 275 275 275 274 274 273 272 272 271 271 271 271 272 272 272 271 271 271 271 270 270 270 270 269 269 268 267 266 265 264 264 264 264 264 264 265 265
275 276 276 277 277 278 278 278 278 278 278 279 279 279 279 279 279 279 279 278 278 277 276 276 275 275 275 274 275 276 277 276 276 276 275 275 275 274 274 274 274 274 274 274 273 273 273 273 274 274 274 273 272 271 271 271 270 270 271 271 271 271 271 271 271 270 270 270 270 269 269 269 268 268 267 266 265 264 263 263 263 263 263 264 264
274 275 275 276 276 277 277 277 277 277 277 278 278 278 278 278 277 277 277 276 276 275 275 275 274 274 274 274 275 275 275 275 274 273 273 272 272 272 272 272 272 272 272 272 271 271 271 272 273 273 272 272 271 271 270 270 270 270 270 270 270 270 270 270 270 270 270 269 269 269 269 269 268 267 267 266 265 264 263 263 263 263 263 263 263
273 274 275 275 276 276 276 276 277 277 277 277 277 277 276 276 276 276 275 275 275 274 274 274 274 273 273 273 273 272 272 273 272 271 271 271 271 271 271 271 271 272 271 271 271 271 271 271 271 271 270 270 270 270 270 270 270 270 270 270 270 270 269 269 269 269 269 269 269 268 268 268 267 267 266 265 264 263 262 262 262 262 262 263 263
273 274 274 275 275 275 275 276 276 276 276 276 276 275 275 275 275 274 274 274 273 273 273 273 273 273 272 272 271 271 271 271 270 270 270 270 270 270 270 271 271 271 271 271 271 271 271 270 270 269 269 269 269 269 269 269 269 269 269 269 269 269 269 268 268 268 268 268 268 268 267 267 267 266 265 265 264 263 263 262 262 262 262 262 262
273 273 273 274 274 274 275 275 275 275 275 275 275 274 274 274 273 273 273 273 272 272 272 272 271 271 270 270 270 270 270 270 269 269 269 269 269 270 270 271 271 271 271 271 271 270 269 269 268 268 268 268 268 268 269 269 269 268 268 268 268 268 268 268 267 267 267 267 267 267 267 266 266 265 265 264 264 263 263 263 262 262 262 262 262
Wind_Speed
31 33 34 36 37 37 37 33 27 25 24 23 25 28 30 31 30 27 26 24 22 25 26 23 23 23 24 27 28 28 29 29 29 29 30 30 29 29 28 27 28 27 26 26 27 26 26 27 27 26 26 26 26 26 25 24 23 23 22 20 18 18 18 16 11 9 16 20 20 21 21 19 20 22 23 23 21 20 19 19 20 21 22 23 24
32 33 33 34 35 34 35 33 24 20 22 22 22 23 23 25 24 22 22 23 24 28 30 28 26 25 26 29 30 31 31 31 30 29 30 31 30 30 29 28 28 27 26 26 27 26 25 26 27 25 23 24 25 24 22 21 21 20 20 18 19 20 19 18 16 11 13 18 20 19 18 17 19 20 20 19 19 19 19 20 20 19 19 21 22
31 32 31 32 33 32 33 30 23 20 22 22 24 26 25 23 22 23 25 26 29 32 32 30 29 29 29 30 31 31 31 31 30 30 30 30 30 30 29 28 27 26 26 27 25 24 25 27 27 23 21 21 23 22 21 21 21 20 19 19 19 19 18 18 18 15 14 16 17 17 16 16 17 18 17 17 18 19 19 19 19 18 18 19 21
27 28 28 29 29 30 32 28 22 22 23 23 26 29 28 25 24 26 30 31 32 34 32 30 30 30 30 31 31 31 30 30 30 30 31 31 30 30 29 27 26 26 26 26 24 23 24 25 24 21 19 20 22 23 22 22 20 19 18 18 18 18 19 19 20 19 17 15 14 15 15 15 15 17 17 18 19 19 18 18 18 18 18 18 19
23 24 25 27 28 29 31 29 25 26 26 25 27 28 27 27 28 30 32 32 32 33 31 30 30 30 31 31 31 31 30 30 30 31 31 30 30 29 27 27 28 27 26 26 25 25 25 25 23 20 19 20 22 22 21 20 19 19 20 20 19 19 20 20 21 21 19 17 15 14 14 14 15 17 17 16 17 17 17 17 18 18 18 18 19
21 22 24 25 27 29 31 31 31 32 32 30 31 31 30 31 32 33 33 32 32 32 31 31 31 31 31 32 31 31 30 30 30 31 30 30 29 28 28 29 29 27 26 26 27 28 27 24 23 22 22 23 22 21 21 20 21 21 21 21 20 19 19 20 20 20 19 18 17 14 13 13 13 13 15 14 13 14 14 15 16 17 17 18 19
18 21 22 24 26 28 30 32 33 33 33 33 34 33 33 33 33 33 33 32 32 32 32 32 32 32 32 32 31 31 31 30 30 31 31 30 29 28 29 30 28 27 27 26 25 25 25 25 25 24 24 24 23 22 21 21 22 22 21 21 22 20 19 20 20 18 18 16 14 12 11 12 11 12 14 13 12 13 12 11 11 13 14 16 17
17 19 21 23 26 27 29 30 31 32 32 33 33 32 32 32 33 32 32 32 33 33 32 32 32 32 31 31 31 31 31 31 31 32 30 27 27 28 28 27 26 27 27 26 24 23 22 24 24 24 23 22 21 21 21 21 22 22 22 22 23 21 20 20 19 17 16 14 11 9 10 11 11 11 12 11 9 9 8 8 10 11 11 12 15
17 19 21 24 26 26 27 28 29 30 31 31 32 32 32 31 31 31 32 33 33 32 32 32 31 31 31 31 31 31 31 32 31 31 29 28 29 29 27 26 26 26 26 26 26 26 25 24 23 22 22 21 21 22 22 22 22 22 22 23 23 22 20 19 17 16 14 11 9 8 8 9 9 8 8 7 5 5 6 8 10 10 9 11 13
16 18 22 24 26 26 26 27 27 28 30 30 31 31 31 30 30 31 32 32 32 32 31 31 31 31 32 31 31 31 31 31 31 29 28 28 28 27 27 27 26 25 25 26 26 26 26 25 25 24 23 23 23 23 22 22 22 23 23 23 22 21 20 18 17 16 13 10 9 9 7 7 7 6 6 5 5 6 6 7 8 7 8 9 8
15 18 21 23 24 25 26 26 26 27 28 29 30 30 30 30 30 31 31 31 31 30 30 30 31 31 31 31 31 31 31 32 30 28 28 29 28 27 27 28 27 26 26 25 25 25 24 24 24 25 25 25 23 22 23 23 23 23 22 21 20 19 18 17 16 15 13 10 10 8 7 7 6 4 5 4 4 4 4 5 5 5 6 6 4
15 18 20 21 23 24 25 26 26 27 28 28 30 30 29 29 30 30 31 31 30 29 29 30 31 31 30 30 30 31 31 31 29 27 28 29 28 27 28 28 28 27 27 26 26 26 25 26 26 26 25 23 21 22 23 23 21 20 19 18 18 18 18 17 16 15 14 12 10 7 6 6 4 3 3 3 2 3 3 3 4 4 4 5 5
16 17 19 20 21 23 24 26 27 29 29 29 29 28 28 30 31 31 31 30 29 29 29 30 31 30 30 30 30 31 31 30 28 28 29 28 27 27 27 27 27 28 29 30 29 29 29 28 27 26 24 22 22 24 24 22 20 19 18 19 20 20 19 18 17 16 15 13 11 8 7 5 3 3 4 4 3 3 3 3 3 3 4 6 7
16 18 19 20 21 22 23 25 28 29 29 28 28 28 29 30 30 30 29 28 28 29 30 31 31 30 30 31 31 31 31 31 30 30 30 29 29 29 28 28 29 30 31 31 30 30 30 28 26 25 25 25 26 26 24 22 21 20 20 21 21 20 19 18 17 16 14 13 11 9 7 7 6 5 6 6 4 3 4 4 4 5 6 9 11
18 19 21 22 23 22 23 25 27 27 27 27 27 28 29 30 30 29 28 28 29 30 30 31 31 31 32 32 32 33 34 33 32 32 32 31 30 30 30 30 31 32 32 31 31 30 29 27 25 26 27 28 27 26 23 22 22 21 20 19 18 17 17 16 15 15 14 13 12 11 10 9 8 8 8 7 6 6 7 7 7 8 9 10 11
19 21 23 24 24 23 22 23 24 25 26 26 27 30 30 30 29 28 28 29 29 30 31 32 32 33 33 33 33 35 35 34 34 33 33 32 31 30 30 30 31 30 30 31 30 29 27 26 27 27 28 27 26 24 22 21 21 20 19 18 16 15 15 14 14 13 12 12 12 11 11 10 9 9 9 8 7 7 6 6 6 6 6 7 7
20 23 24 26 26 24 21 22 23 25 25 26 29 31 30 29 28 28 28 30 31 32 33 33 33 34 34 34 35 36 36 35 34 34 34 33 31 30 30 30 30 30 29 29 28 27 26 28 28 28 27 25 24 22 21 21 21 20 19 17 16 15 14 13 12 12 11 11 10 10 10 10 9 9 8 7 6 5 3 2 2 2 3 5 4
22 24 26 27 26 24 22 22 23 24 26 28 30 30 28 28 28 28 30 31 32 33 33 32 33 34 34 36 36 36 36 36 35 36 36 35 33 33 32 31 30 30 29 28 28 28 29 30 30 29 27 24 22 22 23 22 21 20 19 19 17 16 15 14 13 12 11 10 10 9 9 8 8 7 7 6 6 4 4 4 3 2 3 4 3
23 24 26 26 24 23 22 22 23 25 27 29 30 30 29 28 28 29 30 31 31 31 31 31 32 32 33 34 34 34 34 34 32 31 31 31 32 33 32 30 30 31 29 28 29 31 31 30 29 28 27 25 24 24 24 22 21 21 20 20 20 19 17 16 14 14 13 12 11 10 9 9 8 7 7 6 5 5 5 5 4 3 3 3 3
23 24 25 24 23 23 22 23 24 26 28 30 30 30 29 28 28 29 30 29 29 29 29 29 30 30 31 31 31 31 31 30 28 27 27 28 29 31 32 31 30 29 27 27 28 31 31 29 28 28 27 25 25 24 23 22 21 21 21 22 23 21 19 18 16 15 15 14 13 12 10 9 8 7 6 5 5 5 6 6 5 5 4 3 2
23 23 23 22 22 23 23 23 24 26 28 28 28 28 28 28 27 28 28 27 27 28 28 28 28 29 29 29 30 31 30 29 28 27 28 29 30 31 33 32 29 26 25 25 26 29 31 30 29 28 27 26 25 24 23 22 21 21 22 23 22 21 20 19 18 17 16 15 14 13 11 10 9 8 7 6 6 5 5 5 6 5 5 3 3
21 21 21 21 21 21 22 23 23 24 26 26 26 27 26 25 25 26 26 26 26 27 27 27 27 27 27 28 30 31 30 30 30 29 30 32 32 33 35 34 31 27 26 26 25 26 28 30 29 28 27 25 24 23 22 21 21 22 22 21 19 19 20 20 19 18 17 16 15 14 13 11 10 9 8 7 6 6 6 6 6 5 5 5 4
19 20 20 20 21 21 21 21 21 22 24 24 25 25 23 23 23 24 24 24 25 26 26 26 26 27 27 28 30 31 31 31 31 31 31 32 34 35 35 35 33 31 30 30 27 23 24 27 28 27 24 23 21 21 20 21 23 23 22 20 20 20 20 20 20 20 19 18 17 15 14 13 11 9 9 8 7 7 7 7 6 6 6 6 6
17 19 20 20 20 21 20 20 20 20 21 22 22 22 21 21 21 22 22 23 23 24 25 26 26 27 28 28 29 30 31 32 32 33 33 33 34 36 36 35 34 33 32 31 27 24 25 27 27 24 22 20 20 21 22 24 25 24 22 21 21 21 21 21 21 21 19 18 16 14 13 12 11 9 8 7 6 5 4 4 3 3 3 3 4
15 17 18 18 19 19 18 18 18 19 20 20 21 22 22 21 21 21 22 23 22 22 23 25 26 26 26 27 28 29 29 30 32 33 34 33 33 34 35 35 33 32 30 29 27 26 27 27 26 23 21 20 21 23 24 25 25 24 22 22 22 22 22 21 20 19 16 15 15 13 11 10 9 8 7 6 5 4 3 2 2 2 1 1 1
16 16 16 17 17 17 16 17 17 17 18 19 20 21 21 22 22 22 23 23 24 23 22 22 23 24 25 26 26 25 25 27 30 31 32 33 33 33 33 32 32 31 30 29 27 26 26 26 25 23 22 22 23 24 23 23 23 23 22 22 22 21 20 19 18 16 15 15 15 12 10 9 8 8 7 6 5 4 4 4 4 3 2 2 2
15 16 16 16 16 15 15 15 15 16 16 17 18 18 18 19 20 21 21 22 24 24 21 20 20 22 24 26 25 23 22 24 28 29 29 31 32 31 31 31 31 30 28 26 25 24 24 24 24 23 23 23 24 25 23 23 23 23 22 22 20 16 14 15 16 16 16 15 13 10 9 9 9 8 7 6 5 4 4 5 5 4 3 1 1
13 15 15 14 14 14 13 13 14 15 15 16 17 18 18 18 19 21 22 22 22 20 19 19 19 20 20 19 20 20 20 23 28 29 28 29 30 28 28 29 27 27 26 25 24 24 24 24 23 22 23 24 24 24 24 24 24 23 23 22 19 15 12 12 13 13 13 11 10 10 10 10 9 8 7 6 5 5 4 4 4 4 4 2 1
12 13 13 13 13 12 12 12 13 14 14 15 16 18 20 20 20 22 23 24 24 22 19 18 18 18 17 17 17 17 17 21 27 28 27 28 29 28 28 28 27 28 28 26 24 24 24 24 24 24 24 25 24 23 23 23 23 22 23 23 22 18 15 12 12 11 10 10 10 11 11 10 9 9 7 6 5 6 5 5 4 4 4 4 3
12 13 12 12 12 11 11 11 12 12 13 13 12 14 18 21 22 23 22 22 24 25 24 21 18 16 16 18 20 20 19 21 24 25 26 28 29 30 31 31 30 30 28 26 25 25 25 25 26 26 25 23 21 21 22 23 23 22 22 22 22 20 16 12 11 11 11 11 11 11 10 9 8 8 8 7 6 6 5 5 5 4 4 4 4
12 12 10 10 10 10 10 10 11 11 11 10 9 10 12 15 19 22 24 23 22 24 25 25 23 20 18 18 19 21 22 22 22 23 24 26 28 30 31 31 31 32 32 30 27 27 28 27 24 23 23 20 18 19 21 22 22 21 21 21 21 20 18 14 13 13 13 12 11 11 10 9 8 8 8 7 6 6 5 5 5 5 4 4 4
11 11 11 11 11 10 10 10 11 10 9 8 8 8 8 9 11 15 19 23 24 24 24 24 25 25 25 23 21 20 21 21 22 22 23 24 26 29 31 31 31 32 32 30 27 27 29 27 21 19 18 16 16 19 19 19 19 21 21 19 18 19 19 17 15 15 15 14 13 11 9 9 8 8 7 7 6 5 5 5 5 5 5 5 4
11 11 11 10 9 8 8 9 9 8 7 7 8 8 9 9 9 9 10 15 20 23 24 24 24 24 25 26 25 24 23 22 22 22 23 24 26 28 30 31 31 31 32 29 24 24 27 28 25 22 19 16 17 20 19 17 19 20 19 16 16 17 18 17 15 15 14 13 12 10 9 8 7 7 6 6 6 5 5 6 6 6 5 5 4
11 11 10 9 8 7 7 7 8 7 7 8 9 9 9 10 10 9 8 9 12 15 19 22 23 23 23 25 26 26 25 24 23 23 24 24 26 28 30 29 29 30 31 28 24 24 27 28 25 23 21 20 20 20 18 17 18 18 16 15 17 18 18 16 15 14 12 11 9 8 8 8 8 7 6 6 5 5 6 6 6 6 5 5 4
11 11 11 10 8 7 7 7 7 8 8 8 9 10 10 10 10 11 11 10 10 10 12 15 18 21 23 24 25 25 25 25 24 24 25 25 26 28 28 25 24 25 27 26 24 25 27 27 25 24 23 21 17 14 13 14 17 20 20 18 18 18 16 14 12 12 11 10 9 9 10 9 8 7 6 6 7 7 6 6 6 5 5 5 4
13 11 10 9 8 8 8 8 8 8 9 9 9 10 10 11 11 12 12 12 11 11 10 12 15 17 19 22 24 24 24 25 25 25 25 26 28 30 29 25 23 22 22 23 24 25 25 26 26 24 20 17 14 12 12 15 19 22 20 16 14 15 15 13 12 12 12 12 11 11 10 8 7 7 7 7 8 7 6 6 5 5 5 4 4
14 12 11 10 9 9 9 9 9 10 10 10 10 11 11 12 13 13 12 11 11 11 10 12 14 14 15 18 21 21 22 24 24 25 26 27 30 35 34 30 27 23 21 23 25 24 22 22 22 19 17 16 15 13 15 19 22 21 19 16 16 17 16 15 15 15 14 13 12 12 11 9 9 9 8 7 6 6 5 5 4 4 4 4 4
16 15 14 13 12 11 11 10 10 10 11 12 12 12 13 14 14 14 14 13 13 12 12 14 16 15 15 16 18 19 20 20 21 22 24 26 31 32 29 25 25 23 22 24 25 22 19 18 18 18 18 20 20 19 20 23 24 23 22 21 19 18 17 17 17 16 15 13 13 13 12 11 10 10 8 6 5 5 4 4 4 4 4 5 5
20 18 17 15 14 14 13 12 11 11 12 13 13 13 14 14 14 14 14 13 13 14 14 15 16 16 16 18 19 19 18 18 19 20 21 25 28 27 21 19 21 21 22 23 23 21 20 20 21 22 23 24 25 25 25 26 25 23 23 22 19 18 18 18 17 17 15 14 13 13 12 11 10 9 7 5 4 4 4 4 4 4 4 5 5
22 21 19 17 16 16 15 14 14 13 14 14 14 13 14 15 14 14 13 12 13 15 16 15 16 17 18 21 22 22 20 19 20 22 22 23 23 22 21 22 23 22 23 25 25 25 25 25 25 26 26 26 27 26 25 25 24 23 22 21 20 19 19 18 17 16 15 14 13 13 12 11 10 9 8 5 4 4 4 4 4 4 4 4 4
23 22 20 18 17 17 17 17 16 15 15 15 15 14 14 15 15 14 13 13 14 15 16 16 16 17 20 23 26 26 23 20 20 21 22 21 21 20 22 25 25 25 27 28 28 28 28 28 28 28 28 27 27 26 25 24 24 22 22 21 20 19 18 18 16 15 14 14 13 12 11 10 9 9 9 7 6 5 5 4 4 4 4 4 4
24 22 20 19 18 17 17 17 17 17 16 16 16 15 15 15 15 14 13 13 14 13 13 13 14 16 19 22 25 25 21 18 20 21 19 19 20 21 23 26 27 27 28 29 29 29 29 29 29 29 28 28 28 27 25 24 23 22 22 21 20 19 19 17 16 15 14 13 12 11 10 9 8 8 8 8 7 6 5 4 4 3 3 4 4
23 23 22 22 20 18 17 18 18 16 16 16 16 17 16 15 15 14 13 14 14 13 12 12 13 15 17 19 21 23 21 20 20 19 17 18 21 23 24 25 26 26 27 28 28 29 29 30 29 29 28 27 26 25 23 23 22 22 21 20 19 19 18 16 16 15 14 12 11 10 9 9 8 8 8 7 7 6 5 4 4 3 2 3 3
22 22 22 22 20 20 20 19 18 18 17 17 17 17 17 16 15 13 12 12 13 13 12 13 13 14 15 17 18 19 18 17 18 18 18 20 23 24 24 24 25 25 26 27 27 28 29 29 29 28 26 25 23 21 20 20 19 19 19 19 18 18 17 16 15 14 13 12 11 10 9 8 8 7 7 6 6 6 5 4 3 3 2 3 3
21 21 20 18 17 18 19 19 18 18 18 17 17 16 16 16 15 13 12 13 13 12 12 12 14 15 16 17 17 17 16 16 17 19 21 23 24 24 24 24 25 26 27 28 28 28 28 28 28 27 25 23 22 20 19 19 18 17 17 16 16 15 15 14 13 12 11 11 10 9 8 8 7 6 6 6 6 6 5 4 3 3 3 3 3
22 21 19 16 16 17 18 17 17 17 17 16 16 15 15 14 14 13 12 13 13 13 12 13 14 15 15 16 17 18 19 18 18 19 21 23 24 25 25 26 27 28 28 28 28 27 26 25 25 24 23 22 22 21 20 19 18 17 16 15 14 14 13 12 12 11 10 10 9 8 8 7 6 6 6 6 6 6 6 5 4 3 3 3 3
21 21 20 18 17 18 18 16 15 16 16 16 15 14 13 12 12 12 11 12 12 13 13 14 15 15 15 16 19 20 20 19 19 20 21 22 24 25 25 26 26 26 25 25 24 23 22 21 20 20 20 21 21 20 19 19 18 17 16 15 14 13 12 12 11 10 10 9 8 8 7 7 7 7 6 6 6 6 5 5 4 4 3 3 3
17 17 17 17 17 17 16 14 14 14 14 14 13 13 12 11 10 11 11 13 13 13 13 14 15 16 16 18 19 20 21 20 21 21 22 22 23 24 25 25 25 24 24 23 22 20 19 19 18 18 18 19 19 19 18 18 17 16 15 14 13 12 11 11 10 10 9 8 8 8 8 8 7 7 6 6 5 5 5 5 4 3 3 3 3
16 14 14 15 16 16 15 13 12 12 12 12 12 12 12 11 11 11 12 13 14 14 15 15 16 18 19 19 19 19 21 22 22 22 23 23 23 24 23 23 23 23 22 21 20 19 19 18 18 18 18 18 17 17 16 16 15 14 14 13 12 11 11 10 10 9 9 8 8 8 8 8 7 6 5 5 4 5 5 5 4 3 3 3 3
16 15 14 15 16 16 14 13 12 12 11 11 10 11 11 11 11 11 11 12 13 14 15 16 17 19 20 20 19 20 22 23 23 23 23 23 23 23 23 22 21 20 20 19 19 19 19 19 18 18 17 16 16 15 14 14 13 13 12 12 11 11 10 10 9 9 9 8 8 8 8 8 7 6 5 4 5 5 6 6 6 5 4 4 4
15 15 15 15 15 14 12 12 12 12 11 10 10 10 10 11 11 11 12 14 15 15 16 17 18 18 18 18 20 22 23 22 22 22 22 22 22 22 21 20 19 19 19 20 20 20 19 18 17 16 15 15 14 13 13 13 12 12 11 11 11 10 10 9 9 9 9 8 8 8 7 7 6 5 5 5 6 6 6 6 7 6 6 5 5
Wind_Direction
223 223 224 225 227 228 229 230 228 228 230 230 231 234 237 238 238 237 236 235 233 233 233 230 230 229 230 235 236 235 236 239 241 241 241 242 241 242 243 243 242 242 244 246 244 246 249 250 252 254 254 254 256 259 264 266 266 259 252 250 252 258 261 257 258 267 265 264 268 274 277 279 281 281 282 284 284 283 281 281 282 283 284 284 284
224 224 224 225 227 228 229 229 225 224 226 227 228 229 230 232 233 231 230 231 231 232 234 232 231 230 232 237 238 238 239 240 241 240 240 241 241 241 240 240 241 243 246 248 246 246 249 249 251 253 254 258 260 261 264 266 260 252 248 250 253 257 258 255 255 258 263 266 268 271 274 277 279 281 284 284 283 282 281 282 284 284 285 285 285
226 226 226 227 229 228 229 227 222 224 226 226 229 230 230 231 231 230 230 232 233 236 236 234 233 235 236 239 239 239 241 240 239 239 239 239 240 242 241 240 241 243 246 248 246 246 250 248 247 249 253 259 260 259 261 259 252 247 247 248 251 255 257 255 252 250 255 263 265 267 273 278 278 279 282 281 281 284 285 286 288 289 288 287 287
226 227 227 229 229 229 230 227 222 225 227 227 231 232 233 232 230 231 233 234 236 238 238 236 237 239 239 239 239 239 239 239 238 239 238 238 239 240 239 240 242 244 245 248 248 248 250 248 246 247 252 256 257 257 255 249 244 243 246 250 253 257 260 258 254 250 249 254 259 263 267 271 274 275 278 281 283 286 287 289 292 292 292 291 291
227 227 228 230 230 231 231 228 226 228 228 230 232 232 232 232 231 234 236 237 239 240 240 238 239 240 239 238 238 238 238 237 237 238 237 239 239 240 242 244 244 244 245 247 250 250 250 250 249 249 253 255 253 250 245 240 240 243 247 250 251 254 257 258 255 251 246 246 253 260 263 266 269 274 278 284 289 293 294 294 294 295 296 296 296
228 228 229 229 231 232 232 230 230 232 233 234 235 235 235 236 237 239 240 239 240 241 240 239 239 238 238 238 237 238 237 236 236 238 237 237 236 237 242 242 241 244 246 245 247 250 250 250 250 251 251 248 244 241 238 238 240 243 246 247 247 249 254 257 255 249 244 245 250 257 262 265 268 274 280 285 289 293 297 300 301 302 303 303 302
230 230 231 231 233 235 235 235 235 237 237 238 239 240 239 240 241 241 241 239 239 239 239 239 238 237 238 238 237 237 236 235 236 237 236 235 234 236 238 236 238 245 245 242 245 247 247 246 247 247 243 240 240 241 241 240 241 244 248 249 246 244 247 251 249 243 240 242 247 252 256 260 263 267 274 283 288 289 293 297 300 302 306 307 308
232 233 234 235 238 241 240 241 241 241 241 240 241 241 241 241 241 240 240 239 238 239 238 238 237 236 237 237 237 236 235 235 235 234 234 234 235 237 237 235 237 240 238 238 243 244 243 242 239 238 238 240 244 246 245 245 245 248 251 248 244 242 242 241 237 234 235 236 242 247 250 256 261 266 272 280 286 289 291 289 289 293 298 305 311
238 238 240 241 245 246 245 246 245 244 243 242 242 242 241 241 240 239 239 238 238 239 238 237 236 235 235 236 235 234 233 234 234 233 233 233 232 233 235 237 238 238 236 236 238 238 238 237 234 236 242 248 253 253 249 248 249 250 249 245 242 241 239 235 230 228 228 228 231 233 238 247 253 261 268 265 263 275 285 285 287 291 295 303 311
249 247 248 249 251 251 249 249 247 245 244 243 243 242 240 240 239 238 239 238 238 237 236 235 234 234 234 233 231 231 232 233 232 231 232 232 229 229 231 235 238 238 236 233 230 229 231 233 236 242 250 255 256 254 251 249 248 248 246 244 241 238 233 229 226 223 220 220 225 220 224 243 250 251 255 253 258 273 281 283 287 294 303 311 318
261 260 260 259 257 254 252 251 250 248 246 244 242 241 240 239 238 238 238 237 236 234 233 232 231 231 231 231 230 230 229 230 230 229 230 229 229 231 234 235 235 233 231 229 229 231 232 236 242 248 252 250 247 246 247 245 243 241 240 238 236 234 232 229 228 226 221 220 224 219 221 243 251 242 245 254 263 268 276 284 286 298 310 315 320
262 265 267 266 263 257 253 251 250 249 248 245 242 240 238 238 237 236 235 234 232 230 229 229 228 229 229 230 229 228 228 229 229 228 227 226 228 231 232 231 228 227 229 232 236 240 242 246 249 246 242 237 237 241 240 236 233 233 233 233 232 232 233 232 231 230 227 224 225 222 221 234 239 222 223 242 262 270 280 280 276 291 297 293 299
261 266 267 267 265 260 254 250 248 248 247 245 243 239 237 236 235 233 232 231 229 227 227 227 227 228 227 226 226 226 226 227 226 224 225 225 226 226 226 227 230 232 237 240 242 246 248 245 239 233 230 232 237 237 231 227 228 229 231 234 233 231 230 230 230 232 231 230 229 225 219 219 212 204 225 242 255 266 274 274 272 282 279 275 282
261 266 267 266 263 259 255 250 246 246 245 244 242 238 236 236 234 232 230 228 226 225 224 225 225 225 224 222 223 225 226 225 224 223 225 227 228 228 230 234 236 238 240 241 241 242 239 232 227 230 234 236 234 230 226 226 228 228 229 230 228 228 228 228 230 231 232 233 229 221 221 222 213 220 246 254 248 236 244 258 267 274 277 278 284
259 263 264 264 261 257 254 249 246 244 242 241 240 237 236 234 232 229 227 225 224 223 222 223 223 222 222 222 224 226 227 227 226 227 229 230 230 232 235 236 237 238 240 240 238 234 229 228 232 236 237 235 230 226 226 227 225 223 223 223 222 222 223 224 226 227 228 229 225 221 228 234 229 232 243 245 235 230 241 254 267 281 289 290 292
256 259 261 263 261 256 252 249 246 243 239 237 237 236 234 232 229 227 225 224 224 223 222 222 222 222 223 224 226 229 230 230 229 230 230 229 229 231 232 232 232 234 236 234 231 227 227 231 234 234 235 233 226 222 222 223 222 219 216 214 213 213 214 217 220 220 219 220 222 224 231 236 233 231 233 230 227 231 243 260 274 285 290 287 285
258 261 262 265 263 258 254 250 248 243 236 234 236 235 232 231 228 225 223 222 222 222 222 223 223 224 225 226 228 231 233 232 230 229 229 227 226 225 224 225 228 230 230 228 225 226 230 233 233 234 235 230 221 218 220 221 219 215 210 207 204 202 204 207 209 212 215 217 221 226 229 229 225 224 226 225 224 224 222 233 244 252 269 275 276
262 264 266 267 265 261 257 253 250 244 237 235 236 234 231 230 228 224 222 222 223 223 224 225 227 228 229 231 232 235 237 236 233 231 230 227 223 221 221 223 226 228 228 228 229 232 233 234 234 234 231 225 222 222 221 218 215 211 207 202 198 195 197 198 198 201 204 207 213 214 213 214 212 214 222 225 228 223 201 201 210 225 259 269 277
265 267 269 270 267 266 262 256 251 246 241 240 238 234 232 230 228 225 224 224 225 226 226 228 230 232 234 236 238 239 239 239 235 229 225 220 217 218 219 219 221 221 221 223 226 228 229 229 229 227 224 223 224 223 219 216 214 211 207 201 195 193 194 194 195 195 193 193 197 197 196 200 203 209 217 219 223 218 203 205 209 207 239 258 271
266 267 268 267 266 267 265 259 254 250 247 245 241 236 234 231 227 226 225 224 225 227 229 230 233 236 238 239 240 239 239 239 234 224 218 216 216 218 219 218 218 217 215 217 219 221 223 223 222 221 220 219 219 218 217 215 212 209 207 203 199 197 194 192 191 191 190 188 188 188 189 192 194 197 200 199 202 207 205 209 208 200 213 234 242
263 264 265 265 264 264 263 258 255 253 251 249 244 240 236 231 228 226 224 223 223 226 229 232 234 238 239 238 237 236 235 236 233 224 219 219 219 220 221 220 219 216 213 214 217 218 219 219 218 216 214 213 214 213 213 213 212 211 210 209 207 202 194 188 186 186 186 183 181 181 181 182 183 183 181 180 185 193 200 208 213 210 209 207 209
262 264 265 266 265 264 262 258 256 254 252 249 245 241 238 234 231 228 226 224 224 226 228 229 231 235 236 235 235 235 233 233 233 228 223 222 222 222 223 223 222 218 215 216 216 216 217 220 220 216 212 211 211 212 213 215 215 214 211 207 202 196 190 186 182 179 178 176 175 176 176 176 177 177 177 182 191 197 201 207 213 213 211 210 213
271 270 270 269 267 266 264 261 258 255 252 249 245 242 240 237 233 230 227 225 225 226 227 227 228 229 230 232 233 233 232 232 232 230 226 225 226 226 226 226 225 223 220 218 216 214 219 223 221 216 212 211 213 215 218 218 214 210 206 200 193 189 186 183 180 177 176 176 176 176 178 180 180 178 178 183 192 199 201 207 213 216 223 232 237
283 276 274 272 270 269 266 263 260 256 252 249 244 240 238 237 234 230 228 226 225 226 226 226 225 225 226 228 229 230 231 230 230 230 228 228 229 229 227 226 227 225 223 222 222 224 227 224 217 212 211 214 219 222 222 218 212 206 201 196 190 187 184 181 179 178 178 178 178 177 179 182 179 174 174 177 183 189 191 194 201 205 222 239 244
296 286 280 277 275 274 271 267 262 256 251 245 240 236 233 231 229 227 226 225 225 228 229 227 225 226 227 228 228 228 227 227 228 229 229 229 231 231 229 227 226 225 225 226 230 234 231 222 213 212 216 220 222 220 217 214 209 204 199 194 188 186 185 182 181 181 181 180 178 174 175 176 173 172 172 168 168 172 162 139 131 122 98 83 87
299 295 291 287 285 281 275 270 263 256 250 244 240 236 231 227 225 223 222 222 224 227 230 230 229 230 231 232 231 229 227 227 227 228 228 228 227 227 228 228 228 228 228 229 230 229 222 214 209 211 216 216 214 210 207 207 204 199 196 195 191 188 187 186 186 186 184 180 175 169 167 167 168 173 172 160 158 164 151 137 139 143 121 90 83
294 293 291 290 289 283 276 269 262 256 251 243 238 236 232 229 227 223 221 221 223 225 226 226 226 228 231 233 233 232 230 228 227 225 225 224 222 221 223 224 225 225 223 222 220 214 207 203 204 207 209 207 205 204 202 199 196 194 194 195 194 191 191 193 194 192 186 179 170 162 161 161 162 167 164 154 158 165 154 144 149 163 172 151 150
293 291 289 288 286 281 274 265 256 253 250 243 237 234 231 229 229 229 227 225 224 225 225 225 226 227 229 229 227 227 228 228 226 224 222 221 219 217 216 216 215 214 212 209 206 200 194 193 194 197 198 197 196 198 198 196 195 195 194 193 193 194 194 194 194 192 184 174 162 157 159 159 160 164 162 159 166 169 164 162 164 173 185 194 203
294 293 293 290 286 281 273 262 253 248 246 245 242 239 237 235 234 237 238 236 233 233 232 233 235 234 233 229 224 223 228 231 230 227 224 224 221 215 211 209 207 206 207 203 195 187 184 186 187 188 189 189 189 191 192 192 194 196 196 194 195 196 195 191 189 185 177 168 161 158 159 159 161 164 164 164 170 173 175 179 179 179 192 207 222
298 298 298 296 291 284 275 265 256 249 245 244 244 246 247 244 241 243 245 246 244 242 240 239 240 238 238 237 234 232 236 240 238 233 229 229 226 219 215 212 209 206 204 199 193 188 185 185 187 187 187 187 186 186 187 188 188 191 194 196 196 195 193 190 187 181 173 167 163 160 159 159 161 165 166 164 167 176 183 190 191 191 201 216 230
301 301 300 299 296 290 281 270 263 257 251 247 246 248 251 251 247 245 245 247 249 249 247 245 243 241 241 244 244 242 244 247 246 240 235 232 228 222 218 214 211 208 202 194 191 192 190 188 188 189 188 188 186 184 185 185 185 186 189 193 195 196 194 191 186 178 170 164 162 161 160 160 160 163 167 167 169 178 188 194 197 200 209 220 229
297 295 295 295 295 293 285 275 268 261 254 250 247 245 250 257 257 253 248 245 246 249 249 249 248 247 247 249 249 247 246 246 244 240 237 235 230 224 218 212 209 207 201 195 193 194 192 191 190 188 188 188 187 185 182 181 182 185 186 187 190 193 193 189 184 178 172 166 163 160 158 160 161 163 168 173 177 184 190 196 202 207 214 225 231
295 290 290 290 289 285 277 268 261 254 249 247 244 240 242 249 256 261 255 247 245 246 246 246 246 245 246 248 248 248 247 246 243 238 235 232 228 223 216 210 207 203 197 194 196 195 193 194 194 191 189 189 188 186 183 180 182 183 182 182 183 185 186 184 179 175 172 167 163 160 160 163 165 166 171 176 180 187 194 202 210 212 213 223 232
300 291 285 279 274 271 264 256 249 244 242 243 241 238 239 240 244 250 251 246 243 243 244 245 244 242 242 243 244 244 244 243 240 236 232 228 225 218 209 203 203 202 198 197 198 195 193 194 194 191 189 189 189 186 183 182 183 181 178 179 180 180 180 179 175 171 170 168 165 165 167 168 168 170 173 176 180 189 199 204 208 207 209 218 226
310 301 295 284 272 264 256 250 247 245 242 240 237 237 239 238 238 241 243 243 242 241 242 244 243 242 241 241 240 240 239 237 236 232 228 224 218 208 197 191 193 196 198 200 199 195 193 193 192 189 188 187 186 182 178 179 182 181 179 178 177 176 175 175 175 175 175 174 172 172 171 171 172 173 175 181 185 190 196 199 200 204 210 217 226
314 308 304 295 285 274 262 251 244 240 239 240 240 240 240 239 239 239 238 238 239 239 238 238 238 239 239 238 237 235 234 233 232 227 222 218 209 196 189 188 189 190 194 199 197 194 193 193 191 188 186 184 182 179 175 175 177 178 177 175 173 174 176 178 179 181 180 177 175 174 173 174 176 176 178 185 189 191 195 199 202 207 210 212 226
313 306 303 299 293 287 277 266 253 244 241 242 243 244 244 241 238 236 233 231 231 230 228 227 226 226 228 229 229 228 227 228 227 223 218 212 202 195 193 194 192 190 191 193 193 191 191 189 187 184 183 182 181 178 175 174 175 175 176 175 175 177 181 184 185 184 181 179 178 179 179 178 179 179 179 181 185 189 192 196 198 204 211 216 228
315 309 305 301 296 289 284 279 271 261 254 248 244 241 241 239 234 230 229 228 224 220 219 217 214 211 213 215 216 215 214 213 211 209 206 200 195 195 198 197 193 191 190 188 188 187 184 181 182 182 182 182 181 178 177 178 178 178 178 178 179 181 185 188 189 188 187 185 183 183 183 180 179 180 180 178 182 188 189 193 200 207 217 224 226
316 312 309 308 301 291 285 281 277 270 263 256 250 244 239 235 230 226 225 223 219 217 215 213 211 211 209 204 199 195 193 191 189 189 190 190 191 194 195 190 184 184 184 183 183 183 181 181 183 183 183 183 182 181 180 179 179 179 179 179 181 185 189 190 190 190 190 188 185 184 184 182 184 190 191 186 188 189 187 194 206 210 215 221 224
311 309 308 307 302 293 286 281 276 271 265 260 255 250 244 239 234 230 226 223 219 217 214 212 211 210 205 200 195 189 185 186 188 186 184 184 187 190 189 185 179 179 182 183 184 184 184 184 184 184 183 182 180 179 179 179 178 179 182 184 187 189 191 191 190 188 188 188 188 189 191 193 198 202 198 190 188 190 189 193 203 209 215 222 227
307 305 303 302 300 296 289 282 276 272 269 264 259 255 251 247 243 239 235 230 226 222 220 217 214 209 206 203 200 195 190 189 189 186 183 183 183 184 187 188 185 183 185 187 187 186 186 185 183 181 179 178 178 178 180 181 182 184 186 189 190 189 188 188 190 190 191 192 193 194 197 199 202 204 201 198 199 201 197 196 201 209 219 223 228
303 300 298 299 298 294 289 284 281 277 273 268 263 259 256 252 248 243 239 236 233 227 224 221 215 210 208 204 199 195 191 187 183 181 180 181 183 183 185 187 188 188 190 191 190 188 185 182 179 177 176 177 179 180 181 184 186 188 188 189 189 187 186 188 189 189 189 189 189 190 192 193 196 200 199 198 198 197 193 190 191 197 209 216 222
300 297 296 296 294 289 285 284 283 279 274 270 266 262 259 255 251 245 241 237 233 226 221 218 212 207 203 197 193 192 191 186 182 178 173 176 183 184 183 185 188 191 193 193 191 187 182 177 175 176 177 179 180 182 184 186 187 188 188 187 187 186 186 186 184 183 183 183 183 184 186 187 190 193 193 193 194 191 185 184 187 188 200 214 224
299 297 295 293 292 289 286 283 280 277 273 271 268 264 258 253 249 245 240 234 227 221 218 213 204 196 191 189 190 192 189 181 178 177 178 182 185 184 183 185 187 188 188 186 184 181 178 176 175 177 178 179 181 183 185 186 185 185 185 185 184 184 184 183 182 181 181 181 181 181 183 185 189 189 190 193 192 183 173 174 180 183 195 212 222
297 293 290 287 285 285 285 282 279 276 272 269 266 262 255 250 245 239 234 228 220 214 211 206 197 191 188 188 192 194 189 182 181 184 187 188 185 182 181 182 181 180 178 176 175 176 177 178 177 176 176 178 180 181 181 180 178 179 181 182 183 182 181 181 181 180 180 182 182 182 183 185 187 187 185 181 178 176 175 178 180 185 198 209 217
294 288 283 278 276 278 278 275 273 270 267 264 261 257 252 247 241 235 230 224 213 204 201 198 193 191 190 189 190 192 191 187 186 185 184 181 178 176 175 174 172 171 171 170 172 176 178 178 177 177 177 178 178 177 175 174 172 172 174 177 179 180 179 179 179 180 181 183 184 185 186 187 186 186 184 178 177 184 189 188 187 191 201 209 218
292 285 279 275 273 273 273 270 266 264 261 258 255 251 248 244 237 229 223 216 205 199 197 193 190 191 191 187 186 186 185 182 179 176 173 172 171 169 168 167 166 166 167 169 171 174 176 177 178 180 179 178 175 172 171 171 170 171 173 175 177 178 179 179 180 181 182 184 186 189 192 192 189 189 190 189 190 194 195 192 192 200 211 219 226
288 280 276 275 272 270 269 267 263 259 257 253 249 245 241 235 228 221 215 208 199 194 192 190 189 189 186 182 180 179 177 174 172 169 168 167 166 164 164 164 165 165 167 168 170 173 174 177 178 177 176 174 172 170 171 171 171 172 175 176 178 179 180 179 180 181 182 186 190 193 196 197 195 193 195 195 193 192 192 194 198 202 210 221 225
284 277 274 273 272 268 267 265 262 258 255 250 244 239 233 226 220 215 208 201 196 193 192 189 186 183 178 173 170 169 169 169 167 165 164 164 163 163 164 166 168 169 170 169 170 173 175 176 175 173 172 172 171 171 172 172 173 175 177 177 179 181 180 180 182 184 186 190 194 196 199 199 196 193 195 197 196 197 203 208 210 207 210 223 229
279 275 273 272 271 269 267 264 260 258 253 247 240 235 226 217 210 204 197 193 192 192 189 184 177 173 170 168 166 165 166 166 164 163 163 163 164 166 168 170 170 172 172 173 174 175 176 176 174 173 173 173 172 173 175 177 178 180 180 180 182 183 182 182 185 189 190 192 195 198 200 199 196 197 205 213 214 214 217 220 221 219 220 225 226
277 276 274 271 270 269 267 263 259 256 250 243 237 231 220 210 202 197 194 191 188 184 179 173 169 165 164 165 165 165 164 164 164 164 165 166 168 169 171 172 173 175 176 177 177 176 175 175 175 174 174 176 177 178 181 183 184 184 185 185 186 186 185 186 190 193 195 197 199 200 200 201 203 209 216 218 220 222 223 225 228 227 225 225 227